Time,TemperatureF,DewpointF,PressureIn,WindDirection,WindDirectionDegrees,WindSpeedMPH,WindSpeedGustMPH,Humidity,HourlyPrecipIn,Conditions,Clouds,dailyrainin,SoftwareType,DateUTC
2013-11-28 03:22:00,21.0,8.0,-100.00,SSE,165,1.0,6.0,57,-99.99,,,-99.99,,2013-11-28 09:22:00,
2013-11-28 03:33:00,21.0,8.0,-100.00,SSE,165,1.0,6.0,57,-99.99,,,-99.99,,2013-11-28 09:33:00,
2013-11-28 03:43:00,21.0,8.0,-100.00,SSE,165,1.0,6.0,57,-99.99,,,-99.99,,2013-11-28 09:43:00,
2013-11-28 03:53:00,21.0,8.0,-100.00,SSE,165,1.0,6.0,57,-99.99,,,-99.99,,2013-11-28 09:53:00,
2013-11-28 04:02:00,21.0,8.0,-100.00,SSE,165,1.0,6.0,57,-99.99,,,-99.99,,2013-11-28 10:02:00,
2013-11-28 04:23:00,21.0,8.0,-100.00,South,185,2.0,6.0,56,-99.99,,,-99.99,,2013-11-28 10:23:00,
2013-11-28 04:33:00,21.0,8.0,-100.00,South,185,2.0,6.0,56,-99.99,,,-99.99,,2013-11-28 10:33:00,
2013-11-28 04:43:00,21.0,8.0,-100.00,South,185,2.0,6.0,56,-99.99,,,-99.99,,2013-11-28 10:43:00,
2013-11-28 04:53:00,21.0,8.0,-100.00,South,185,2.0,6.0,56,-99.99,,,-99.99,,2013-11-28 10:53:00,
2013-11-28 05:02:00,21.0,8.0,-100.00,South,185,2.0,6.0,56,-99.99,,,-99.99,,2013-11-28 11:02:00,
2013-11-28 05:22:00,21.0,8.0,-100.00,South,175,1.0,4.0,56,-99.99,,,-99.99,,2013-11-28 11:22:00,
2013-11-28 05:33:00,21.0,8.0,-100.00,South,175,1.0,4.0,56,-99.99,,,-99.99,,2013-11-28 11:33:00,
2013-11-28 05:42:00,21.0,8.0,-100.00,South,175,1.0,4.0,56,-99.99,,,-99.99,,2013-11-28 11:42:00,
2013-11-28 05:52:00,21.0,8.0,-100.00,South,175,1.0,4.0,56,-99.99,,,-99.99,,2013-11-28 11:52:00,
2013-11-28 06:22:00,21.0,8.0,-100.00,East,95,1.0,2.0,57,-99.99,,,-99.99,,2013-11-28 12:22:00,
2013-11-28 06:32:00,21.0,8.0,-100.00,East,95,1.0,2.0,57,-99.99,,,-99.99,,2013-11-28 12:32:00,
2013-11-28 06:42:00,21.0,8.0,-100.00,East,95,1.0,2.0,57,-99.99,,,-99.99,,2013-11-28 12:42:00,
2013-11-28 06:52:00,21.0,8.0,-100.00,East,95,1.0,2.0,57,-99.99,,,-99.99,,2013-11-28 12:52:00,
2013-11-28 07:01:00,21.0,8.0,-100.00,East,95,1.0,2.0,57,-99.99,,,-99.99,,2013-11-28 13:01:00,
2013-11-28 07:22:00,21.0,9.0,-100.00,South,170,0.0,1.0,59,-99.99,,,-99.99,,2013-11-28 13:22:00,
2013-11-28 07:32:00,21.0,9.0,-100.00,South,170,0.0,1.0,59,-99.99,,,-99.99,,2013-11-28 13:32:00,
2013-11-28 07:42:00,21.0,9.0,-100.00,South,170,0.0,1.0,59,-99.99,,,-99.99,,2013-11-28 13:42:00,
2013-11-28 07:52:00,21.0,9.0,-100.00,South,170,0.0,1.0,59,-99.99,,,-99.99,,2013-11-28 13:52:00,
2013-11-28 08:02:00,21.0,9.0,-100.00,South,170,0.0,1.0,59,-99.99,,,-99.99,,2013-11-28 14:02:00,
2013-11-28 08:22:00,22.0,10.0,-100.00,ENE,60,0.0,1.0,61,-99.99,,,-99.99,,2013-11-28 14:22:00,
2013-11-28 08:32:00,22.0,10.0,-100.00,ENE,60,0.0,1.0,61,-99.99,,,-99.99,,2013-11-28 14:32:00,
2013-11-28 08:42:00,22.0,10.0,-100.00,ENE,60,0.0,1.0,61,-99.99,,,-99.99,,2013-11-28 14:42:00,
2013-11-28 08:52:00,22.0,10.0,-100.00,ENE,60,0.0,1.0,61,-99.99,,,-99.99,,2013-11-28 14:52:00,
2013-11-28 09:02:00,22.0,10.0,-100.00,ENE,60,0.0,1.0,61,-99.99,,,-99.99,,2013-11-28 15:02:00,
2013-11-28 09:22:00,22.0,10.0,-100.00,SSW,205,1.0,2.0,60,-99.99,,,-99.99,,2013-11-28 15:22:00,
2013-11-28 09:34:00,22.0,10.0,-100.00,SSW,205,1.0,2.0,60,-99.99,,,-99.99,,2013-11-28 15:34:00,
2013-11-28 09:44:00,22.0,10.0,-100.00,SSW,205,1.0,2.0,60,-99.99,,,-99.99,,2013-11-28 15:44:00,
2013-11-28 09:54:00,22.0,10.0,-100.00,SSW,205,1.0,2.0,60,-99.99,,,-99.99,,2013-11-28 15:54:00,
2013-11-28 10:23:00,23.0,11.0,-100.00,WNW,300,4.0,7.0,59,-99.99,,,-99.99,,2013-11-28 16:23:00,
2013-11-28 10:33:00,23.0,11.0,-100.00,WNW,300,4.0,7.0,59,-99.99,,,-99.99,,2013-11-28 16:33:00,
2013-11-28 10:43:00,23.0,11.0,-100.00,WNW,300,4.0,7.0,59,-99.99,,,-99.99,,2013-11-28 16:43:00,
2013-11-28 10:54:00,23.0,11.0,-100.00,WNW,300,4.0,7.0,59,-99.99,,,-99.99,,2013-11-28 16:54:00,
2013-11-28 11:02:00,23.0,11.0,-100.00,WNW,300,4.0,7.0,59,-99.99,,,-99.99,,2013-11-28 17:02:00,
2013-11-28 11:23:00,25.0,11.0,-100.00,NW,320,4.0,12.0,56,-99.99,,,-99.99,,2013-11-28 17:23:00,
2013-11-28 11:33:00,25.0,11.0,-100.00,NW,320,4.0,12.0,56,-99.99,,,-99.99,,2013-11-28 17:33:00,
2013-11-28 11:42:00,25.0,11.0,-100.00,NW,320,4.0,12.0,56,-99.99,,,-99.99,,2013-11-28 17:42:00,
2013-11-28 11:52:00,25.0,11.0,-100.00,NW,320,4.0,12.0,56,-99.99,,,-99.99,,2013-11-28 17:52:00,
2013-11-28 12:02:00,25.0,11.0,-100.00,NW,320,4.0,12.0,56,-99.99,,,-99.99,,2013-11-28 18:02:00,
2013-11-28 12:22:00,27.0,10.0,-100.00,NW,315,7.0,15.0,49,-99.99,,,-99.99,,2013-11-28 18:22:00,
2013-11-28 12:33:00,27.0,10.0,-100.00,NW,315,7.0,15.0,49,-99.99,,,-99.99,,2013-11-28 18:33:00,
2013-11-28 12:42:00,27.0,10.0,-100.00,NW,315,7.0,15.0,49,-99.99,,,-99.99,,2013-11-28 18:42:00,
2013-11-28 12:52:00,27.0,10.0,-100.00,NW,315,7.0,15.0,49,-99.99,,,-99.99,,2013-11-28 18:52:00,
2013-11-28 13:02:00,27.0,10.0,-100.00,NW,315,7.0,15.0,49,-99.99,,,-99.99,,2013-11-28 19:02:00,
2013-11-28 13:22:00,29.0,11.0,-100.00,NW,315,5.0,13.0,47,-99.99,,,-99.99,,2013-11-28 19:22:00,
2013-11-28 13:32:00,29.0,11.0,-100.00,NW,315,5.0,13.0,47,-99.99,,,-99.99,,2013-11-28 19:32:00,
2013-11-28 13:42:00,29.0,11.0,-100.00,NW,315,5.0,13.0,47,-99.99,,,-99.99,,2013-11-28 19:42:00,
2013-11-28 13:52:00,29.0,11.0,-100.00,NW,315,5.0,13.0,47,-99.99,,,-99.99,,2013-11-28 19:52:00,
2013-11-28 14:01:00,29.0,11.0,-100.00,NW,315,5.0,13.0,47,-99.99,,,-99.99,,2013-11-28 20:01:00,
2013-11-28 14:02:00,27.0,10.0,-100.00,North,5,7.0,14.0,48,-99.99,,,-99.99,,2013-11-28 20:02:00,
2013-11-28 14:22:00,27.0,10.0,-100.00,North,5,7.0,14.0,48,-99.99,,,-99.99,,2013-11-28 20:22:00,
2013-11-28 14:32:00,27.0,10.0,-100.00,North,5,7.0,14.0,48,-99.99,,,-99.99,,2013-11-28 20:32:00,
2013-11-28 14:42:00,27.0,10.0,-100.00,North,5,7.0,14.0,48,-99.99,,,-99.99,,2013-11-28 20:42:00,
2013-11-28 14:52:00,27.0,10.0,-100.00,North,5,7.0,14.0,48,-99.99,,,-99.99,,2013-11-28 20:52:00,
2013-11-28 15:22:00,26.0,9.0,-100.00,NNW,340,9.0,12.0,49,-99.99,,,-99.99,,2013-11-28 21:22:00,
2013-11-28 15:33:00,26.0,9.0,-100.00,NNW,340,9.0,12.0,49,-99.99,,,-99.99,,2013-11-28 21:33:00,
2013-11-28 15:43:00,26.0,9.0,-100.00,NNW,340,9.0,12.0,49,-99.99,,,-99.99,,2013-11-28 21:43:00,
2013-11-28 15:53:00,26.0,9.0,-100.00,NNW,340,9.0,12.0,49,-99.99,,,-99.99,,2013-11-28 21:53:00,
2013-11-28 16:03:00,26.0,9.0,-100.00,NNW,340,9.0,12.0,49,-99.99,,,-99.99,,2013-11-28 22:03:00,
2013-11-28 16:23:00,26.0,8.0,-100.00,NNW,345,12.0,19.0,48,-99.99,,,-99.99,,2013-11-28 22:23:00,
2013-11-28 16:33:00,26.0,8.0,-100.00,NNW,345,12.0,19.0,48,-99.99,,,-99.99,,2013-11-28 22:33:00,
2013-11-28 16:42:00,26.0,8.0,-100.00,NNW,345,12.0,19.0,48,-99.99,,,-99.99,,2013-11-28 22:42:00,
2013-11-28 16:53:00,26.0,8.0,-100.00,NNW,345,12.0,19.0,48,-99.99,,,-99.99,,2013-11-28 22:53:00,
2013-11-28 17:02:00,26.0,8.0,-100.00,NNW,345,12.0,19.0,48,-99.99,,,-99.99,,2013-11-28 23:02:00,
2013-11-28 17:22:00,25.0,8.0,-100.00,NW,315,6.0,16.0,48,-99.99,,,-99.99,,2013-11-28 23:22:00,
2013-11-28 17:33:00,25.0,8.0,-100.00,NW,315,6.0,16.0,48,-99.99,,,-99.99,,2013-11-28 23:33:00,
2013-11-28 17:42:00,25.0,8.0,-100.00,NW,315,6.0,16.0,48,-99.99,,,-99.99,,2013-11-28 23:42:00,
2013-11-28 17:52:00,25.0,8.0,-100.00,NW,315,6.0,16.0,48,-99.99,,,-99.99,,2013-11-28 23:52:00,
2013-11-28 18:02:00,25.0,8.0,-100.00,NW,315,6.0,16.0,48,-99.99,,,-99.99,,2013-11-29 00:02:00,
2013-11-28 18:22:00,24.0,8.0,-100.00,NW,310,4.0,10.0,49,-99.99,,,-99.99,,2013-11-29 00:22:00,
2013-11-28 18:32:00,24.0,8.0,-100.00,NW,310,4.0,10.0,49,-99.99,,,-99.99,,2013-11-29 00:32:00,
2013-11-28 18:42:00,24.0,8.0,-100.00,NW,310,4.0,10.0,49,-99.99,,,-99.99,,2013-11-29 00:42:00,
2013-11-28 18:52:00,24.0,8.0,-100.00,NW,310,4.0,10.0,49,-99.99,,,-99.99,,2013-11-29 00:52:00,
2013-11-28 19:01:00,24.0,8.0,-100.00,NW,310,4.0,10.0,49,-99.99,,,-99.99,,2013-11-29 01:01:00,
2013-11-28 19:02:00,17.0,4.0,-100.00,North,0,1.0,2.0,57,-99.99,,,-99.99,,2013-11-29 01:02:00,
2013-11-28 19:22:00,17.0,4.0,-100.00,North,0,1.0,2.0,57,-99.99,,,-99.99,,2013-11-29 01:22:00,
2013-11-28 19:32:00,17.0,4.0,-100.00,North,0,1.0,2.0,57,-99.99,,,-99.99,,2013-11-29 01:32:00,
2013-11-28 19:42:00,17.0,4.0,-100.00,North,0,1.0,2.0,57,-99.99,,,-99.99,,2013-11-29 01:42:00,
2013-11-28 19:52:00,17.0,4.0,-100.00,North,0,1.0,2.0,57,-99.99,,,-99.99,,2013-11-29 01:52:00,
2013-11-28 20:22:00,15.0,6.0,-100.00,SW,220,0.0,1.0,69,-99.99,,,-99.99,,2013-11-29 02:22:00,
2013-11-28 20:32:00,15.0,6.0,-100.00,SW,220,0.0,1.0,69,-99.99,,,-99.99,,2013-11-29 02:32:00,
2013-11-28 20:42:00,15.0,6.0,-100.00,SW,220,0.0,1.0,69,-99.99,,,-99.99,,2013-11-29 02:42:00,
2013-11-28 20:52:00,15.0,6.0,-100.00,SW,220,0.0,1.0,69,-99.99,,,-99.99,,2013-11-29 02:52:00,
2013-11-28 21:01:00,15.0,6.0,-100.00,SW,220,0.0,1.0,69,-99.99,,,-99.99,,2013-11-29 03:01:00,
2013-11-28 21:03:00,15.0,9.0,-100.00,NW,305,2.0,3.0,77,-99.99,,,-99.99,,2013-11-29 03:03:00,
2013-11-28 21:22:00,15.0,9.0,-100.00,NW,305,2.0,3.0,77,-99.99,,,-99.99,,2013-11-29 03:22:00,
2013-11-28 21:33:00,15.0,9.0,-100.00,NW,305,2.0,3.0,77,-99.99,,,-99.99,,2013-11-29 03:33:00,
2013-11-28 21:43:00,15.0,9.0,-100.00,NW,305,2.0,3.0,77,-99.99,,,-99.99,,2013-11-29 03:43:00,
2013-11-28 21:54:00,15.0,9.0,-100.00,NW,305,2.0,3.0,77,-99.99,,,-99.99,,2013-11-29 03:54:00,
2013-11-28 22:23:00,17.0,11.0,-100.00,NNW,345,2.0,6.0,77,-99.99,,,-99.99,,2013-11-29 04:23:00,
2013-11-28 22:33:00,17.0,11.0,-100.00,NNW,345,2.0,6.0,77,-99.99,,,-99.99,,2013-11-29 04:33:00,
2013-11-28 22:43:00,17.0,11.0,-100.00,NNW,345,2.0,6.0,77,-99.99,,,-99.99,,2013-11-29 04:43:00,
2013-11-28 22:52:00,17.0,11.0,-100.00,NNW,345,2.0,6.0,77,-99.99,,,-99.99,,2013-11-29 04:52:00,
2013-11-28 23:02:00,17.0,11.0,-100.00,NNW,345,2.0,6.0,77,-99.99,,,-99.99,,2013-11-29 05:02:00,
2013-11-28 23:03:00,15.0,10.0,-100.00,NNW,340,1.0,4.0,80,-99.99,,,-99.99,,2013-11-29 05:03:00,
2013-11-28 23:22:00,15.0,10.0,-100.00,NNW,340,1.0,4.0,80,-99.99,,,-99.99,,2013-11-29 05:22:00,
2013-11-28 23:33:00,15.0,10.0,-100.00,NNW,340,1.0,4.0,80,-99.99,,,-99.99,,2013-11-29 05:33:00,
2013-11-28 23:43:00,15.0,10.0,-100.00,NNW,340,1.0,4.0,80,-99.99,,,-99.99,,2013-11-29 05:43:00,
2013-11-28 23:53:00,15.0,10.0,-100.00,NNW,340,1.0,4.0,80,-99.99,,,-99.99,,2013-11-29 05:53:00,